FW2647 Weather Reports


time (UTC)temp
C
wind
direction
speed
KPH
gust
KPH
rain 1hr
cm
rain 24hr
cm
rain mn
cm
humidity
%
barometer
mb
20260510130220 12 54 16.1 33.8 0.00 0.00 0.00 65 1016.8
20260510125004 12 64 11.3 35.4 0.00 0.00 0.00 61 1016.7
20260510124216 12 64 14.5 27.4 0.00 0.00 0.00 62 1016.9
20260510123007 12 58 12.9 27.4 0.00 0.00 0.00 66 1016.9
20260510122005 11 44 16.1 27.4 0.00 0.00 0.00 65 1017.2
20260510121005 12 22 12.9 27.4 0.00 0.00 0.00 63 1017.2
20260510120007 11 65 16.1 33.8 0.00 0.00 0.00 66 1017.2
20260510115006 11 53 17.7 29.0 0.00 0.00 0.00 69 1017.3
20260510114003 11 81 14.5 25.7 0.00 0.00 0.00 70 1017.3
20260510113005 11 74 12.9 24.1 0.00 0.00 0.00 71 1017.4
20260510112006 11 67 16.1 32.2 0.00 0.00 0.00 71 1017.6
20260510111007 11 60 14.5 27.4 0.00 0.00 0.00 71 1017.7
20260510110005 11 61 14.5 33.8 0.00 0.00 0.00 72 1017.7
20260510105003 11 67 14.5 30.6 0.00 0.00 0.00 72 1017.8
20260510104004 11 58 14.5 24.1 0.00 0.00 0.00 72 1017.8
20260510103213 11 30 16.1 29.0 0.00 0.00 0.00 72 1017.8
20260510102005 11 43 14.5 24.1 0.00 0.00 0.00 71 1018.0
20260510101007 11 44 16.1 29.0 0.00 0.00 0.00 70 1017.9
20260510100005 11 41 11.3 24.1 0.00 0.00 0.00 71 1017.8
20260510095217 11 59 12.9 27.4 0.00 0.00 0.00 71 1017.8
20260510094005 11 58 12.9 24.1 0.00 0.00 0.00 72 1018.0
20260510093214 11 39 11.3 20.9 0.00 0.00 0.00 71 1018.0
20260510092215 11 62 14.5 29.0 0.00 0.00 0.00 70 1018.0
20260510091008 11 57 14.5 32.2 0.00 0.00 0.00 70 1018.0
20260510090217 11 64 14.5 32.2 0.00 0.00 0.00 71 1018.1
20260510085005 11 43 16.1 27.4 0.00 0.00 0.00 72 1018.0
20260510084006 11 71 14.5 30.6 0.00 0.00 0.00 73 1017.9
20260510083005 11 76 14.5 27.4 0.00 0.00 0.00 74 1018.0
20260510082216 11 56 14.5 27.4 0.00 0.00 0.00 74 1017.9
20260510081005 11 86 14.5 25.7 0.00 0.00 0.00 76 1017.9
20260510080004 11 87 16.1 33.8 0.00 0.00 0.00 75 1017.9
20260510075005 11 55 14.5 30.6 0.00 0.00 0.00 76 1018.0
20260510074219 11 57 14.5 30.6 0.00 0.00 0.00 76 1017.9
20260510073004 11 57 16.1 27.4 0.00 0.00 0.00 77 1018.2
20260510072003 11 81 12.9 24.1 0.00 0.00 0.00 79 1018.0
20260510071003 11 79 12.9 24.1 0.00 0.00 0.00 81 1018.1
20260510070005 10 59 9.7 20.9 0.00 0.00 0.00 83 1018.1
20260510065003 10 69 11.3 24.1 0.00 0.00 0.00 83 1018.1
20260510064005 11 70 12.9 24.1 0.00 0.00 0.00 82 1018.0
20260510063005 11 62 9.7 22.5 0.00 0.00 0.00 84 1017.8
20260510062005 11 82 9.7 17.7 0.00 0.00 0.00 89 1017.7
20260510061005 10 55 9.7 17.7 0.00 0.00 0.00 91 1017.7
20260510060003 9 56 9.7 24.1 0.00 0.00 0.00 91 1017.7
20260510055006 9 72 6.4 17.7 0.00 0.00 0.00 92 1017.6
20260510054005 9 55 9.7 17.7 0.00 0.00 0.00 93 1017.5
20260510053003 9 57 9.7 17.7 0.00 0.00 0.00 94 1017.6
20260510052218 8 65 9.7 22.5 0.00 0.00 0.00 95 1017.6
20260510051005 8 47 6.4 14.5 0.00 0.00 0.00 96 1017.6
20260510050005 8 50 9.7 17.7 0.00 0.00 0.00 96 1017.8
20260510045003 8 50 6.4 16.1 0.00 0.00 0.00 97 1017.8
20260510044003 8 51 8.0 14.5 0.00 0.00 0.00 97 1017.9
20260510043008 8 50 8.0 16.1 0.00 0.00 0.00 98 1018.0
20260510042005 8 38 9.7 17.7 0.00 0.00 0.00 98 1018.0
20260510041005 8 117 9.7 16.1 0.00 0.00 0.00 99 1018.1
20260510040005 8 47 9.7 16.1 0.00 0.00 0.00 99 1017.9
20260510035005 8 47 8.0 17.7 0.00 0.00 0.00 99 1018.0
20260510034005 8 43 6.4 16.1 0.00 0.00 0.00 99 1018.1
20260510033003 8 40 11.3 20.9 0.00 0.00 0.00 99 1018.1
20260510032005 8 56 11.3 19.3 0.00 0.00 0.00 99 1018.1
20260510031003 8 42 12.9 20.9 0.00 0.00 0.00 99 1018.2
20260510030004 8 50 12.9 22.5 0.00 0.00 0.00 99 1018.3
20260510025005 8 38 11.3 20.9 0.00 0.00 0.00 99 1018.4
20260510024003 8 45 8.0 16.1 0.00 0.00 0.00 99 1018.5
20260510023213 8 61 9.7 16.1 0.00 0.00 0.00 99 1018.6
20260510022003 8 41 8.0 17.7 0.00 0.00 0.00 99 1018.6
20260510021005 8 39 9.7 20.9 0.00 0.00 0.00 99 1018.7
20260510020003 8 44 11.3 17.7 0.00 0.00 0.00 99 1018.6
20260510015003 8 48 8.0 16.1 0.00 0.00 0.00 99 1018.6
20260510014005 8 39 8.0 14.5 0.00 0.00 0.00 99 1018.4
20260510013004 8 39 9.7 16.1 0.00 0.00 0.00 99 1018.5
20260510012006 8 42 8.0 14.5 0.00 0.00 0.00 99 1018.4
20260510011005 8 42 9.7 12.9 0.00 0.00 0.00 99 1018.4
20260510010006 8 47 9.7 16.1 0.00 0.00 0.00 99 1018.6
20260510005003 8 55 6.4 12.9 0.00 0.00 0.00 99 1018.7
20260510004003 8 52 6.4 11.3 0.00 0.00 0.00 99 1018.7
20260510003004 9 43 6.4 11.3 0.00 0.00 0.00 99 1018.9
20260510002003 9 44 6.4 14.5 0.00 0.00 0.00 99 1019.0
20260510001004 9 48 8.0 16.1 0.00 0.00 0.00 99 1018.9
20260510000005 9 42 8.0 12.9 0.00 0.00 0.00 99 1019.0
20260509235003 9 44 8.0 12.9 0.00 0.00 0.00 99 1019.0
20260509234006 9 32 8.0 14.5 0.00 0.00 0.00 99 1019.1
20260509233005 9 49 8.0 17.7 0.00 0.00 0.00 98 1019.0
20260509232005 9 37 9.7 17.7 0.00 0.00 0.00 97 1019.0
20260509231005 9 50 6.4 12.9 0.00 0.00 0.00 96 1019.0
20260509230218 9 29 6.4 12.9 0.00 0.00 0.00 96 1019.2
20260509225003 8 49 6.4 12.9 0.00 0.00 0.00 94 1019.4
20260509224005 8 46 4.8 8.0 0.00 0.00 0.00 93 1019.2
20260509223003 8 41 4.8 9.7 0.00 0.00 0.00 92 1019.3
20260509222005 8 51 4.8 8.0 0.00 0.00 0.00 91 1019.2
20260509221006 8 47 4.8 8.0 0.00 0.00 0.00 90 1019.1
20260509220007 8 42 4.8 6.4 0.00 0.00 0.00 89 1019.0
20260509215220 9 45 3.2 6.4 0.00 0.00 0.00 88 1019.0
20260509214003 9 45 4.8 6.4 0.00 0.00 0.00 86 1019.2
20260509213006 9 46 3.2 6.4 0.00 0.00 0.00 85 1019.2
20260509212003 10 42 3.2 6.4 0.00 0.00 0.00 83 1019.1
20260509211006 10 65 4.8 8.0 0.00 0.00 0.00 83 1019.1
20260509210007 10 67 3.2 11.3 0.00 0.00 0.00 82 1018.9
20260509205003 10 53 4.8 12.9 0.00 0.00 0.00 81 1018.9
20260509204003 10 77 6.4 12.9 0.00 0.00 0.00 80 1018.8
20260509203005 10 47 4.8 12.9 0.00 0.00 0.00 78 1018.8
20260509202218 10 52 4.8 9.7 0.00 0.00 0.00 78 1018.7
20260509201003 11 45 4.8 8.0 0.00 0.00 0.00 78 1018.8
20260509200003 11 57 4.8 6.4 0.00 0.00 0.00 77 1019.0
20260509195007 11 86 3.2 6.4 0.00 0.00 0.00 73 1019.1
20260509194005 12 120 1.6 6.4 0.00 0.00 0.00 70 1018.9
20260509193008 12 98 0.0 3.2 0.00 0.00 0.00 63 1018.8
20260509192006 13 31 1.6 4.8 0.00 0.00 0.00 62 1018.8
20260509191006 13 61 3.2 6.4 0.00 0.00 0.00 62 1018.6
20260509190003 13 72 4.8 6.4 0.00 0.00 0.00 61 1018.6
20260509185003 14 96 4.8 8.0 0.00 0.00 0.00 60 1018.6
20260509184218 15 122 3.2 9.7 0.00 0.00 0.00 58 1018.6
20260509183213 14 79 8.0 14.5 0.00 0.00 0.00 56 1018.5
20260509182003 15 63 8.0 17.7 0.00 0.00 0.00 54 1018.3
20260509181005 16 151 4.8 16.1 0.00 0.00 0.00 52 1018.3
20260509180005 17 78 4.8 11.3 0.00 0.00 0.00 52 1018.4
20260509175217 17 69 4.8 17.7 0.00 0.00 0.00 45 1018.5
20260509174005 18 64 4.8 12.9 0.00 0.00 0.00 43 1018.7
20260509173003 18 78 6.4 16.1 0.00 0.00 0.00 42 1018.7
20260509172003 18 78 6.4 16.1 0.00 0.00 0.00 40 1018.7
20260509171008 18 114 4.8 12.9 0.00 0.00 0.00 40 1018.7
20260509170005 19 68 6.4 16.1 0.00 0.00 0.00 40 1018.7
20260509165006 19 89 6.4 16.1 0.00 0.00 0.00 40 1018.7
20260509164005 19 147 6.4 14.5 0.00 0.00 0.00 40 1018.6
20260509163003 18 115 6.4 14.5 0.00 0.00 0.00 38 1018.7
20260509162003 18 105 6.4 16.1 0.00 0.00 0.00 38 1018.6
20260509161005 19 98 9.7 14.5 0.00 0.00 0.00 37 1018.6
20260509160004 18 122 6.4 17.7 0.00 0.00 0.00 36 1018.5
20260509155003 19 127 6.4 17.7 0.00 0.00 0.00 36 1018.5
20260509154006 19 112 6.4 16.1 0.00 0.00 0.00 36 1018.3
20260509153005 19 129 8.0 16.1 0.00 0.00 0.00 40 1018.3
20260509152216 19 82 8.0 16.1 0.00 0.00 0.00 40 1018.1
20260509151003 20 66 6.4 16.1 0.00 0.00 0.00 39 1018.0
20260509150005 19 75 6.4 17.7 0.00 0.00 0.00 40 1017.9
20260509145005 19 100 8.0 16.1 0.00 0.00 0.00 40 1018.1
20260509144003 19 125 8.0 17.7 0.00 0.00 0.00 38 1018.1
20260509143005 19 91 6.4 12.9 0.00 0.00 0.00 38 1018.3
20260509142005 19 130 8.0 19.3 0.00 0.00 0.00 39 1018.3
20260509141003 19 225 9.7 20.9 0.00 0.00 0.00 36 1018.4
20260509140222 20 159 9.7 17.7 0.00 0.00 0.00 33 1018.3
20260509135005 20 132 8.0 16.1 0.00 0.00 0.00 32 1018.5
20260509134003 20 77 8.0 20.9 0.00 0.00 0.00 32 1018.5
20260509133006 20 127 8.0 17.7 0.00 0.00 0.00 31 1018.6
20260509132003 20 157 6.4 12.9 0.00 0.00 0.00 32 1018.6